Lone Rock, WI

11:12 PM CDT on March 27, 2017 (GMT -0500)
Tri-County Regional

Weather History for KLNR - November, 2013

Change the Weather History Date:

Monday, November 11, 2013

  Actual Average Record
Temperature  
Mean Temperature 34 °F -  
Max Temperature 45 °F 45 °F 64 °F (2012)
Min Temperature 21 °F 28 °F 18 °F (2004)
Degree Days  
Heating Degree Days 31    
Moisture  
Dew Point 25 °F    
Average Humidity 74    
Maximum Humidity 93    
Minimum Humidity 56    
Precipitation  
Precipitation 0.08 in - - ()
Sea Level Pressure  
Sea Level Pressure 30.28 in    
Wind  
Wind Speed 8 mph (NW)    
Max Wind Speed 16 mph    
Max Gust Speed 25 mph    
Visibility 7 miles    
Events Rain , Snow    
Averages and records for this station are not official NWS values.
T = Trace of Precipitation, MM = Missing Value Source: NWS Daily Summary

Daily Weather History Graph

Daily Weather History Graph

Search for Another Location

Airport or City:

Trip Planner

Search our weather history database for the weather conditions in past years. The results will help you decide how hot, cold, wet, or windy it might be!

Date:

Astronomy

Nov. 11, 2013 Rise Set
Actual Time 6:48 AM CST 4:40 PM CST
Civil Twilight 6:18 AM CST 5:10 PM CST
Nautical Twilight 5:44 AM CST 5:44 PM CST
Astronomical Twilight 5:10 AM CST 6:18 PM CST
Moon 1:29 PM CST (11/11) 12:24 AM CST (11/11)
Length of Visible Light 10h 52m
Length of Day
9h 51m
Waxing Gibbous, 66% of the Moon is Illuminated
Nov 11
Waxing Gibbous
Nov 17
Full
Nov 25
Last Quarter
Dec 2
New
Dec 9
First Quarter

Hourly Weather History & Observations

Time (CST) Temp. Windchill Dew Point Humidity Pressure Visibility Wind Dir Wind Speed Gust Speed Precip Events Conditions
12:56 AM 44.1 °F 40.8 °F 30.0 °F 58% 30.10 in 10.0 mi West 5.8 mph - N/A   Overcast
1:56 AM 44.1 °F 40.8 °F 30.9 °F 60% 30.09 in 10.0 mi West 5.8 mph - N/A   Overcast
2:56 AM 44.1 °F 40.8 °F 30.9 °F 60% 30.07 in 10.0 mi WSW 5.8 mph - N/A   Overcast
3:56 AM 44.1 °F 41.5 °F 32.0 °F 63% 30.06 in 10.0 mi WNW 4.6 mph - N/A   Overcast
4:56 AM 45.0 °F 40.6 °F 32.0 °F 60% 30.07 in 10.0 mi WNW 8.1 mph - N/A   Overcast
5:56 AM 45.0 °F 40.1 °F 30.0 °F 56% 30.09 in 10.0 mi NW 9.2 mph - N/A   Overcast
6:56 AM 42.1 °F 34.9 °F 33.1 °F 70% 30.14 in 9.0 mi NNW 13.8 mph - 0.00 in Rain Light Rain
7:45 AM 37.4 °F 30.8 °F 33.8 °F 87% 30.17 in 6.0 mi North 9.2 mph - 0.00 in Rain Light Rain
7:56 AM 37.9 °F 31.5 °F 33.1 °F 83% 30.17 in 6.0 mi NW 9.2 mph - 0.01 in Rain Light Rain
8:28 AM 35.6 °F 29.2 °F 33.8 °F 93% 30.18 in 4.0 mi NW 8.1 mph - 0.01 in Snow Light Snow
8:44 AM 35.6 °F 30.7 °F 33.8 °F 93% 30.19 in 4.0 mi NW 5.8 mph - 0.01 in Rain Light Rain
8:56 AM 36.0 °F 30.3 °F 33.1 °F 89% 30.20 in 4.0 mi WNW 6.9 mph - 0.02 in Rain Light Rain
9:14 AM 35.6 °F 31.7 °F 33.8 °F 93% 30.20 in 4.0 mi NW 4.6 mph - 0.01 in Snow Light Snow
9:18 AM 35.6 °F 30.7 °F 33.8 °F 93% 30.20 in 3.0 mi WNW 5.8 mph - 0.01 in Snow Light Snow
9:28 AM 35.6 °F 28.6 °F 33.8 °F 93% 30.21 in 2.0 mi WNW 9.2 mph - 0.02 in Snow Light Snow
9:36 AM 35.6 °F 28.6 °F 32.0 °F 87% 30.21 in 2.5 mi NW 9.2 mph - 0.02 in Snow Light Snow
9:56 AM 35.1 °F 27.4 °F 32.0 °F 89% 30.23 in 1.5 mi NW 10.4 mph - 0.03 in Snow Light Snow
10:03 AM 33.8 °F 25.8 °F 30.2 °F 87% 30.23 in 0.8 mi North 10.4 mph - 0.01 in Snow Light Snow
10:56 AM 32.0 °F 23.0 °F 28.9 °F 88% 30.26 in 1.0 mi North 11.5 mph - 0.02 in Snow Light Snow
11:18 AM 32.0 °F 24.2 °F 28.4 °F 87% 30.26 in 0.8 mi NNW 9.2 mph 16.1 mph 0.00 in Snow Light Snow
11:27 AM 32.0 °F 23.6 °F 26.6 °F 80% 30.26 in 1.2 mi NNW 10.4 mph - 0.00 in Snow Light Snow
11:33 AM 32.0 °F 22.5 °F 26.6 °F 80% 30.26 in 2.0 mi NNW 12.7 mph - 0.00 in Snow Light Snow
11:43 AM 32.0 °F 25.6 °F 26.6 °F 80% 30.26 in 5.0 mi NNW 6.9 mph 17.3 mph 0.00 in Snow Light Snow
11:56 AM 32.0 °F 23.0 °F 28.0 °F 85% 30.27 in 9.0 mi NNW 11.5 mph 16.1 mph 0.00 in   Overcast
12:07 PM 32.0 °F 21.6 °F 26.6 °F 80% 30.27 in 10.0 mi North 15.0 mph - N/A   Overcast
12:38 PM 30.2 °F 21.9 °F 19.4 °F 64% 30.29 in 10.0 mi North 9.2 mph 21.9 mph N/A   Overcast
12:56 PM 30.0 °F 20.0 °F 19.9 °F 66% 30.31 in 10.0 mi NNW 12.7 mph 21.9 mph N/A   Overcast
1:56 PM 30.0 °F 20.0 °F 19.9 °F 66% 30.33 in 10.0 mi North 12.7 mph - N/A   Mostly Cloudy
2:56 PM 28.0 °F 16.5 °F 18.0 °F 66% 30.36 in 10.0 mi North 15.0 mph 25.3 mph N/A   Partly Cloudy
3:56 PM 28.0 °F 19.3 °F 17.1 °F 63% 30.39 in 10.0 mi NNW 9.2 mph - N/A   Clear
4:56 PM 27.0 °F 14.7 °F 14.0 °F 58% 30.43 in 10.0 mi NNW 16.1 mph 24.2 mph N/A   Clear
5:56 PM 25.0 °F 17.1 °F 12.0 °F 58% 30.46 in 10.0 mi NNW 6.9 mph - N/A   Clear
6:56 PM 24.1 °F 14.4 °F 14.0 °F 65% 30.50 in 10.0 mi WNW 9.2 mph - N/A   Clear
7:56 PM 24.1 °F 16.0 °F 14.0 °F 65% 30.52 in 10.0 mi WNW 6.9 mph - N/A   Clear
8:56 PM 24.1 °F 15.2 °F 12.9 °F 62% 30.55 in 10.0 mi WNW 8.1 mph - N/A   Clear
9:56 PM 24.1 °F 13.7 °F 12.0 °F 60% 30.58 in 10.0 mi WNW 10.4 mph - N/A   Clear
10:56 PM 23.0 °F 13.1 °F 10.9 °F 60% 30.60 in 10.0 mi NW 9.2 mph - N/A   Clear
11:56 PM 21.9 °F 14.5 °F 10.9 °F 63% 30.63 in 10.0 mi WNW 5.8 mph - N/A   Clear